Time,TemperatureF,DewpointF,PressureIn,WindDirection,WindDirectionDegrees,WindSpeedMPH,WindSpeedGustMPH,Humidity,HourlyPrecipIn,Conditions,Clouds,dailyrainin,SoftwareType,DateUTC
2013-01-06 15:03:00,45.0,27.0,30.29,NNW,348,4.0,-999.0,49,-99.99,,,-99.99,,2013-01-06 21:03:00,
2013-01-06 15:22:00,46.0,27.0,30.29,NW,320,4.0,-999.0,48,-99.99,,,-99.99,,2013-01-06 21:22:00,
2013-01-06 15:33:00,46.0,27.0,30.29,NW,320,4.0,-999.0,48,-99.99,,,-99.99,,2013-01-06 21:33:00,
2013-01-06 15:42:00,46.0,27.0,30.29,NW,320,4.0,-999.0,48,-99.99,,,-99.99,,2013-01-06 21:42:00,
2013-01-06 15:52:00,46.0,27.0,30.31,NW,317,3.0,-999.0,47,-99.99,,,-99.99,,2013-01-06 21:52:00,
2013-01-06 16:02:00,46.0,27.0,30.32,WNW,303,2.0,-999.0,47,-99.99,,,-99.99,,2013-01-06 22:02:00,
2013-01-06 16:12:00,46.0,27.0,30.32,WNW,303,2.0,-999.0,47,-99.99,,,-99.99,,2013-01-06 22:12:00,
2013-01-06 16:22:00,46.0,27.0,30.32,NW,307,3.0,-999.0,47,-99.99,,,-99.99,,2013-01-06 22:22:00,
2013-01-06 16:33:00,46.0,26.0,30.32,NW,315,3.0,-999.0,46,-99.99,,,-99.99,,2013-01-06 22:33:00,
2013-01-06 16:43:00,46.0,26.0,30.32,NW,315,3.0,-999.0,46,-99.99,,,-99.99,,2013-01-06 22:43:00,
2013-01-06 16:52:00,46.0,27.0,30.32,WNW,286,1.0,-999.0,47,-99.99,,,-99.99,,2013-01-06 22:52:00,
2013-01-06 17:02:00,45.0,27.0,30.32,NNW,334,1.0,-999.0,48,-99.99,,,-99.99,,2013-01-06 23:02:00,
2013-01-06 17:12:00,45.0,27.0,30.32,NNW,334,1.0,-999.0,48,-99.99,,,-99.99,,2013-01-06 23:12:00,
2013-01-06 17:22:00,45.0,27.0,30.32,NNW,334,0.0,-999.0,50,-99.99,,,-99.99,,2013-01-06 23:22:00,
2013-01-06 17:33:00,43.0,27.0,30.32,NNW,334,0.0,-999.0,52,-99.99,,,-99.99,,2013-01-06 23:33:00,
2013-01-06 17:43:00,43.0,27.0,30.32,NNW,334,0.0,-999.0,52,-99.99,,,-99.99,,2013-01-06 23:43:00,
2013-01-06 17:52:00,39.0,27.0,30.32,NNW,334,0.0,-999.0,61,-99.99,,,-99.99,,2013-01-06 23:52:00,
2013-01-06 18:02:00,37.0,27.0,30.33,NNW,334,0.0,-999.0,66,-99.99,,,-99.99,,2013-01-07 00:02:00,
2013-01-06 18:12:00,37.0,27.0,30.33,NNW,334,0.0,-999.0,66,-99.99,,,-99.99,,2013-01-07 00:12:00,
2013-01-06 18:23:00,35.0,26.0,30.33,NNW,334,0.0,-999.0,69,-99.99,,,-99.99,,2013-01-07 00:23:00,
2013-01-06 18:33:00,34.0,26.0,30.33,NNW,334,0.0,-999.0,71,-99.99,,,-99.99,,2013-01-07 00:33:00,
2013-01-06 18:42:00,34.0,26.0,30.33,NNW,334,0.0,-999.0,71,-99.99,,,-99.99,,2013-01-07 00:42:00,
2013-01-06 18:52:00,32.0,25.0,30.34,NNW,334,0.0,-999.0,74,-99.99,,,-99.99,,2013-01-07 00:52:00,
2013-01-06 19:02:00,31.0,24.0,30.35,NNW,334,0.0,-999.0,76,-99.99,,,-99.99,,2013-01-07 01:02:00,
2013-01-06 19:12:00,31.0,24.0,30.35,NNW,334,0.0,-999.0,76,-99.99,,,-99.99,,2013-01-07 01:12:00,
2013-01-06 19:22:00,31.0,24.0,30.35,NNW,334,0.0,-999.0,76,-99.99,,,-99.99,,2013-01-07 01:22:00,
2013-01-06 19:32:00,29.0,23.0,30.36,NNW,334,0.0,-999.0,79,-99.99,,,-99.99,,2013-01-07 01:32:00,
2013-01-06 19:43:00,29.0,23.0,30.36,NNW,334,0.0,-999.0,79,-99.99,,,-99.99,,2013-01-07 01:43:00,
2013-01-06 19:53:00,28.0,23.0,30.36,NNW,334,0.0,-999.0,81,-99.99,,,-99.99,,2013-01-07 01:53:00,
2013-01-06 20:02:00,28.0,23.0,30.36,NNW,334,0.0,-999.0,81,-99.99,,,-99.99,,2013-01-07 02:02:00,
2013-01-06 20:12:00,28.0,23.0,30.36,NNW,334,0.0,-999.0,81,-99.99,,,-99.99,,2013-01-07 02:12:00,
2013-01-06 20:22:00,27.0,22.0,30.36,NNW,334,0.0,-999.0,82,-99.99,,,-99.99,,2013-01-07 02:22:00,
2013-01-06 20:32:00,27.0,22.0,30.36,NNW,334,0.0,-999.0,82,-99.99,,,-99.99,,2013-01-07 02:32:00,
2013-01-06 20:42:00,27.0,22.0,30.36,NNW,334,0.0,-999.0,82,-99.99,,,-99.99,,2013-01-07 02:42:00,
2013-01-06 20:52:00,26.0,21.0,30.37,NNW,334,0.0,-999.0,81,-99.99,,,-99.99,,2013-01-07 02:52:00,
2013-01-06 21:02:00,26.0,22.0,30.37,NNW,334,0.0,-999.0,84,-99.99,,,-99.99,,2013-01-07 03:02:00,
2013-01-06 21:12:00,26.0,22.0,30.37,NNW,334,0.0,-999.0,84,-99.99,,,-99.99,,2013-01-07 03:12:00,
2013-01-06 21:22:00,25.0,21.0,30.37,NNW,334,0.0,-999.0,84,-99.99,,,-99.99,,2013-01-07 03:22:00,
2013-01-06 21:33:00,25.0,21.0,30.37,NNW,334,0.0,-999.0,83,-99.99,,,-99.99,,2013-01-07 03:33:00,
2013-01-06 21:43:00,25.0,21.0,30.37,NNW,334,0.0,-999.0,83,-99.99,,,-99.99,,2013-01-07 03:43:00,
2013-01-06 21:52:00,24.0,20.0,30.37,NNW,334,0.0,-999.0,84,-99.99,,,-99.99,,2013-01-07 03:52:00,
2013-01-06 22:02:00,24.0,20.0,30.38,NNW,334,0.0,-999.0,84,-99.99,,,-99.99,,2013-01-07 04:02:00,
2013-01-06 22:12:00,24.0,20.0,30.38,NNW,334,0.0,-999.0,84,-99.99,,,-99.99,,2013-01-07 04:12:00,
2013-01-06 22:22:00,24.0,20.0,30.38,NNW,334,0.0,-999.0,84,-99.99,,,-99.99,,2013-01-07 04:22:00,
2013-01-06 22:32:00,23.0,19.0,30.38,NNW,334,0.0,-999.0,85,-99.99,,,-99.99,,2013-01-07 04:32:00,
2013-01-06 22:42:00,23.0,19.0,30.38,NNW,334,0.0,-999.0,85,-99.99,,,-99.99,,2013-01-07 04:42:00,
2013-01-06 22:52:00,23.0,19.0,30.39,NNW,334,0.0,-999.0,85,-99.99,,,-99.99,,2013-01-07 04:52:00,
2013-01-06 23:03:00,22.0,18.0,30.39,NNW,334,0.0,-999.0,86,-99.99,,,-99.99,,2013-01-07 05:03:00,
2013-01-06 23:12:00,22.0,18.0,30.39,NNW,334,0.0,-999.0,86,-99.99,,,-99.99,,2013-01-07 05:12:00,
2013-01-06 23:22:00,22.0,18.0,30.39,NNW,334,0.0,-999.0,86,-99.99,,,-99.99,,2013-01-07 05:22:00,
2013-01-06 23:33:00,22.0,18.0,30.39,NNW,334,0.0,-999.0,86,-99.99,,,-99.99,,2013-01-07 05:33:00,
2013-01-06 23:53:00,22.0,19.0,30.39,NNW,334,0.0,-999.0,87,-99.99,,,-99.99,,2013-01-07 05:53:00,